Location: ?ejeti?ky
(50.4060°N, 14.9016°E)
Time: 20:25:15
(UTC+00:00)

X-37B - Pass Details

Date: 12 December 2021
Orbit: 334 x 337 km, 45.0° (Epoch: 11 January)

Event Time Altitude Azimuth Distance (km) Brightness Sun altitude
Rises 15:45:58 0° 233° (SW) 2,100 6.5 -7.5°
Reaches altitude 10° 15:48:15 10° 215° (SW) 1,265 4.3 -7.8°
Maximum altitude 15:50:26 20° 165° (SSE) 849 2.4 -8.1°
Drops below altitude 10° 15:52:37 10° 115° (ESE) 1,267 2.8 -8.4°
Enters shadow 15:53:23 - 106° (ESE) 1,532 3.2 -8.6°
